TimeCDT,TemperatureF,Dew PointF,Humidity,Sea Level PressureIn,VisibilityMPH,Wind Direction,Wind SpeedMPH,Gust SpeedMPH,PrecipitationIn,Events,Conditions,WindDirDegrees,DateUTC
12:29 AM,30.2,26.6,86,29.73,2.5,WNW,8.1,-,0.00,Snow,Light Snow,300,2013-04-13 05:29:00
12:37 AM,30.2,26.6,86,29.73,2.5,NW,9.2,-,0.01,Snow,Light Snow,310,2013-04-13 05:37:00
12:54 AM,28.9,26.1,89,29.78,3.0,NNW,11.5,-,0.01,Snow,Light Snow,330,2013-04-13 05:54:00
1:15 AM,28.4,26.6,93,29.73,5.0,WNW,5.8,-,0.00,Snow,Light Snow,300,2013-04-13 06:15:00
1:23 AM,28.4,26.6,93,29.73,6.0,WNW,8.1,-,0.00,Snow,Light Snow,300,2013-04-13 06:23:00
1:41 AM,28.4,26.6,93,29.73,8.0,WNW,6.9,-,0.00,Snow,Light Snow,300,2013-04-13 06:41:00
1:54 AM,28.9,26.1,89,29.78,4.0,WNW,8.1,-,0.00,Snow,Light Snow,300,2013-04-13 06:54:00
2:02 AM,28.4,26.6,93,29.73,4.0,WNW,10.4,-,0.00,Snow,Light Snow,300,2013-04-13 07:02:00
2:36 AM,28.4,24.8,86,29.73,5.0,WNW,9.2,-,0.00,Snow,Light Snow,300,2013-04-13 07:36:00
2:54 AM,28.0,25.0,88,29.78,7.0,WNW,9.2,-,0.00,Snow,Light Snow,300,2013-04-13 07:54:00
3:54 AM,27.0,24.1,89,29.78,4.0,WNW,9.2,-,0.00,Snow,Light Snow,300,2013-04-13 08:54:00
4:03 AM,26.6,24.8,93,29.73,6.0,NW,12.7,-,0.00,Snow,Light Snow,310,2013-04-13 09:03:00
4:11 AM,26.6,24.8,93,29.74,9.0,NW,11.5,-,0.00,,Overcast,310,2013-04-13 09:11:00
4:54 AM,26.1,23.0,88,29.79,10.0,WNW,11.5,-,0.00,,Overcast,300,2013-04-13 09:54:00
5:54 AM,24.1,21.0,88,29.81,10.0,WNW,9.2,-,0.00,,Overcast,300,2013-04-13 10:54:00
6:54 AM,23.0,19.9,88,29.82,10.0,WNW,6.9,-,N/A,,Mostly Cloudy,300,2013-04-13 11:54:00
7:54 AM,25.0,21.9,88,29.85,10.0,WNW,8.1,-,N/A,,Mostly Cloudy,290,2013-04-13 12:54:00
8:19 AM,26.6,21.2,80,29.80,10.0,WNW,9.2,-,N/A,,Mostly Cloudy,290,2013-04-13 13:19:00
8:54 AM,27.0,21.9,81,29.86,10.0,WNW,11.5,-,N/A,,Overcast,300,2013-04-13 13:54:00
9:21 AM,28.4,21.2,74,29.80,10.0,WNW,10.4,-,N/A,,Mostly Cloudy,300,2013-04-13 14:21:00
9:54 AM,28.9,21.0,72,29.86,10.0,WNW,11.5,-,N/A,,Mostly Cloudy,290,2013-04-13 14:54:00
10:54 AM,30.0,21.9,72,29.86,10.0,West,11.5,18.4,N/A,,Overcast,280,2013-04-13 15:54:00
11:36 AM,33.8,24.8,70,29.81,10.0,WNW,8.1,-,N/A,,Overcast,290,2013-04-13 16:36:00
11:54 AM,33.1,25.0,72,29.87,10.0,WNW,9.2,-,N/A,,Overcast,290,2013-04-13 16:54:00
12:41 PM,30.2,24.8,80,29.83,5.0,WNW,8.1,-,0.00,Snow,Light Snow,290,2013-04-13 17:41:00
12:51 PM,30.2,24.8,80,29.83,2.5,WNW,8.1,-,0.00,Snow,Light Snow,290,2013-04-13 17:51:00
12:54 PM,30.9,25.0,79,29.88,2.5,WNW,8.1,-,0.00,Snow,Light Snow,300,2013-04-13 17:54:00
1:01 PM,30.2,26.6,86,29.83,2.0,West,6.9,-,0.00,Snow,Light Snow,280,2013-04-13 18:01:00
1:54 PM,32.0,26.1,79,29.88,3.0,West,9.2,-,0.00,Snow,Light Snow,280,2013-04-13 18:54:00
2:13 PM,32.0,26.6,80,29.83,1.8,West,9.2,-,0.00,Snow,Light Snow,280,2013-04-13 19:13:00
2:33 PM,32.0,28.4,87,29.84,1.0,West,8.1,-,0.00,Snow,Light Snow,280,2013-04-13 19:33:00
2:41 PM,32.0,28.4,87,29.84,1.2,West,9.2,-,0.00,Snow,Light Snow,280,2013-04-13 19:41:00
2:54 PM,33.1,28.9,85,29.89,1.5,West,6.9,-,0.00,Snow,Light Snow,280,2013-04-13 19:54:00
3:02 PM,33.8,28.4,81,29.84,2.0,West,8.1,-,0.00,Snow,Light Snow,270,2013-04-13 20:02:00
3:13 PM,32.0,28.4,87,29.84,1.8,West,6.9,-,0.00,Snow,Light Snow,260,2013-04-13 20:13:00
3:23 PM,33.8,28.4,81,29.84,2.0,WNW,6.9,-,0.00,Snow,Light Snow,290,2013-04-13 20:23:00
3:35 PM,32.0,26.6,80,29.84,5.0,West,11.5,-,0.00,Snow,Light Snow,280,2013-04-13 20:35:00
3:43 PM,30.2,26.6,86,29.85,1.8,NW,15.0,-,0.00,Snow,Light Snow,320,2013-04-13 20:43:00
3:48 PM,30.2,26.6,86,29.85,0.8,NW,13.8,-,0.00,Snow,Light Snow,310,2013-04-13 20:48:00
3:54 PM,30.0,27.0,88,29.90,1.0,NW,10.4,-,0.00,Snow,Light Snow,310,2013-04-13 20:54:00
4:00 PM,30.2,26.6,86,29.85,2.5,NW,9.2,-,0.00,Snow,Light Snow,310,2013-04-13 21:00:00
4:04 PM,30.2,26.6,86,29.85,3.0,WNW,9.2,-,0.00,Snow,Light Snow,300,2013-04-13 21:04:00
4:50 PM,30.2,26.6,86,29.85,2.0,NW,10.4,-,0.00,Snow,Light Snow,320,2013-04-13 21:50:00
4:54 PM,30.9,26.1,82,29.91,1.8,NW,11.5,-,0.00,Snow,Light Snow,310,2013-04-13 21:54:00
5:08 PM,30.2,26.6,86,29.86,3.0,NW,9.2,-,0.00,Snow,Light Snow,320,2013-04-13 22:08:00
5:54 PM,32.0,25.0,75,29.92,10.0,WNW,6.9,-,0.00,,Overcast,300,2013-04-13 22:54:00
6:54 PM,30.0,23.0,75,29.94,10.0,WNW,8.1,-,N/A,,Overcast,300,2013-04-13 23:54:00
7:54 PM,30.0,23.0,75,29.94,10.0,West,4.6,-,N/A,,Overcast,280,2013-04-14 00:54:00
8:54 PM,28.0,21.9,78,29.96,10.0,Calm,Calm,-,N/A,,Mostly Cloudy,0,2013-04-14 01:54:00
9:54 PM,25.0,21.0,85,29.99,10.0,West,3.5,-,N/A,,Clear,270,2013-04-14 02:54:00
10:54 PM,24.1,19.9,84,30.00,10.0,Calm,Calm,-,N/A,,Clear,0,2013-04-14 03:54:00
11:54 PM,21.9,19.9,92,30.01,10.0,Calm,Calm,-,N/A,,Clear,0,2013-04-14 04:54:00